User: anonymous   Login
Location: Desert Center
(33.7130°N, 115.4010°W)
Time: 12:18:37
(UTC-07:00)
Language:

USA 215 - Orbit

View from above orbital plane
View from above orbital plane
View from above satellite
View from above satellite

Ground track
Ground track

The orbit data is extracted from the following two-line orbital elements,

1 37162U 10046A   18163.11999395 0.00000000  00000-0  00000-0 0    08
2 37162 123.0003 212.4641 0004000 215.3430 144.6570 13.41424463    01
Epoch (UTC): 12 June 2018 02:52:47
Eccentricity: 0.0004000
inclination: 123.0003°
perigee height: 1101 km
apogee height: 1107 km
right ascension of ascending node: 212.4641°
argument of perigee: 215.3430°
revolutions per day: 13.41424463
mean anomaly at epoch: 144.6570°
orbit number at epoch: 0

The dashed part of the orbit path shows where the satellite is in the earth's shadow,  

DLR